This is the latest recevied weather packets stored in our database for station/object WC4PEM-4. If no packets are shown the sender has not sent any weather packets the latest 10 day(s).
| Time | Temp. | Humidity | Pressure | Rain* | Wind** | Luminosity | Snow |
|---|---|---|---|---|---|---|---|
| 1787931689 | 31.11° C | 63% | 1018.4 hPa | 0 mm | - | - | - |
| 1787931389 | 31.11° C | 65% | 1018.5 hPa | 0 mm | - | - | - |
| 1787931288 | 30.56° C | 63% | 1018.4 hPa | 0 mm | - | - | - |
| 1787931288 | 30.56° C | 63% | 1018.3 hPa | 0 mm | - | - | - |
| 1787931288 | 31.11° C | 63% | 1018.4 hPa | 0 mm | - | - | - |
| 1787931089 | 30.56° C | 63% | 1018.3 hPa | 0 mm | - | - | - |
| 1787930789 | 31.11° C | 63% | 1018.4 hPa | 0 mm | - | - | - |
| 1787930489 | 30.56° C | 63% | 1018.4 hPa | 0 mm | - | - | - |
| 1787930189 | 30.56° C | 66% | 1018.4 hPa | 0 mm | - | - | - |
| 1787929889 | 30.56° C | 64% | 1018.4 hPa | 0 mm | - | - | - |
| 1787929740 | 30.56° C | 66% | 1018.4 hPa | 0 mm | - | - | - |
| 1787929589 | 30.56° C | 66% | 1018.4 hPa | 0 mm | - | - | - |
| 1787929289 | 30° C | 66% | 1018.3 hPa | 0 mm | - | - | - |
| 1787928989 | 30° C | 68% | 1018.3 hPa | 0 mm | - | - | - |
| 1787928691 | 30° C | 68% | 1018.1 hPa | 0 mm | - | - | - |
| 1787928389 | 30° C | 69% | 1018.3 hPa | 0 mm | - | - | - |
| 1787928089 | 29.44° C | 69% | 1018.3 hPa | 0 mm | - | - | - |
| 1787927789 | 29.44° C | 70% | 1018.2 hPa | 0 mm | - | - | - |
| 1787927631 | 29.44° C | 70% | 1018.2 hPa | 0 mm | - | - | - |
| 1787927489 | 29.44° C | 70% | 1018.2 hPa | 0 mm | - | - | - |
| 1787927305 | 29.44° C | 71% | 1018.2 hPa | 0 mm | - | - | - |
| 1787927189 | 29.44° C | 71% | 1018.2 hPa | 0 mm | - | - | - |
| 1787926889 | 28.89° C | 74% | 1018.2 hPa | 0 mm | - | - | - |
| 1787926589 | 28.89° C | 73% | 1018.1 hPa | 0 mm | - | - | - |
| 1787926289 | 28.89° C | 73% | 1018 hPa | 0 mm | - | - | - |
* Rain latest hour (hover to see other rain measurements)
** Current wind speed in m/s (hover to see current wind gust speed)